LEMUR-2 THERESACONDOR

Last updated on Fri Jun 10 2016 09:36:46 GMT+0000 (Coordinated Universal Time)

1 41485U 98067JF 16162.13656447 .00028902 00000-0 40804-3 0 9994 2 41485 51.6457 93.0213 0000152 4.7311 102.4331 15.56327552 3518

Satellite not in orbit